CFG3LP EDDF-LGIR

Flight info

Callsign CFG3LP
Flight time 2h 42m
Altitude 37000
Route CINDY8S CINDY Z74 LAMPU DCT NOMBO Y161 MAH DCT VAVOR DCT RADIZ DCT PINDO DCT KEA UL607 GIVIS T514 XAVIS
Aircraft A321/M-SDE3FGHIRWY/LB1

Departure

Time 2026-05-06 05:52
Airport Frankfurt Main Airport (EDDF)

Arrival

Time 2026-05-06 08:35
Airport Heraklion International Nikos Kazantzakis Airport (LGIR)
Time Latitude Longitude Altitude Speed Heading
2026-05-06 05:18 50.04904 8.58794 362 ft 0 kts 160°
2026-05-06 05:40 50.04918 8.58786 367 ft 4 kts 160°
2026-05-06 05:41 50.04938 8.58774 360 ft 4 kts 165°
2026-05-06 05:41 50.04963 8.58773 360 ft 4 kts 208°
2026-05-06 05:41 50.04976 8.58789 360 ft 4 kts 236°
2026-05-06 05:41 50.04987 8.58824 360 ft 4 kts 250°
2026-05-06 05:42 50.04990 8.58838 360 ft 0 kts 250°
2026-05-06 05:44 50.04980 8.58795 361 ft 11 kts 249°
2026-05-06 05:44 50.04944 8.58648 365 ft 15 kts 249°
2026-05-06 05:44 50.04907 8.58498 362 ft 14 kts 249°
2026-05-06 05:44 50.04874 8.58357 366 ft 14 kts 250°
2026-05-06 05:45 50.04835 8.58189 362 ft 21 kts 250°
2026-05-06 05:45 50.04771 8.57977 364 ft 21 kts 220°
2026-05-06 05:45 50.04685 8.57808 364 ft 20 kts 247°
2026-05-06 05:45 50.04637 8.57602 364 ft 22 kts 248°
2026-05-06 05:46 50.04573 8.57349 360 ft 27 kts 248°
2026-05-06 05:46 50.04511 8.57083 363 ft 26 kts 250°
2026-05-06 05:46 50.04453 8.56829 363 ft 24 kts 250°
2026-05-06 05:46 50.04394 8.56586 362 ft 24 kts 249°
2026-05-06 05:47 50.04335 8.56344 357 ft 24 kts 249°
2026-05-06 05:47 50.04276 8.56103 358 ft 24 kts 249°
2026-05-06 05:47 50.04219 8.55864 361 ft 24 kts 250°
2026-05-06 05:47 50.04163 8.55625 359 ft 23 kts 250°
2026-05-06 05:48 50.04109 8.55392 360 ft 23 kts 250°
2026-05-06 05:48 50.04056 8.55171 355 ft 21 kts 249°
2026-05-06 05:48 50.04006 8.54961 360 ft 20 kts 249°
2026-05-06 05:48 50.03955 8.54750 353 ft 21 kts 249°
2026-05-06 05:49 50.03904 8.54536 354 ft 22 kts 250°
2026-05-06 05:49 50.03839 8.54325 356 ft 22 kts 234°
2026-05-06 05:49 50.03774 8.54116 348 ft 21 kts 249°
2026-05-06 05:49 50.03723 8.53901 351 ft 21 kts 249°
2026-05-06 05:50 50.03670 8.53687 351 ft 21 kts 249°
2026-05-06 05:50 50.03618 8.53472 338 ft 21 kts 249°
2026-05-06 05:50 50.03563 8.53259 337 ft 21 kts 248°
2026-05-06 05:50 50.03514 8.53048 335 ft 21 kts 250°
2026-05-06 05:51 50.03461 8.52836 333 ft 21 kts 247°
2026-05-06 05:51 50.03412 8.52652 336 ft 12 kts 249°
2026-05-06 05:51 50.03353 8.52596 333 ft 10 kts 179°
2026-05-06 05:51 50.03242 8.52597 336 ft 35 kts 180°
2026-05-06 05:52 50.02752 8.52603 336 ft 101 kts 180°
2026-05-06 05:52 50.01869 8.52605 335 ft 150 kts 180°
2026-05-06 05:52 50.00724 8.52611 589 ft 166 kts 180°
2026-05-06 05:52 49.99586 8.52596 1176 ft 168 kts 180°
2026-05-06 05:53 49.98358 8.52605 1432 ft 187 kts 180°
2026-05-06 05:53 49.97032 8.52994 1556 ft 208 kts 154°
2026-05-06 05:53 49.95942 8.54593 1893 ft 224 kts 122°
2026-05-06 05:53 49.95183 8.56720 2524 ft 225 kts 122°
2026-05-06 05:54 49.94429 8.58844 3141 ft 230 kts 120°
2026-05-06 05:54 49.94012 8.61317 3530 ft 249 kts 98°
2026-05-06 05:54 49.93880 8.64138 3825 ft 272 kts 96°
2026-05-06 05:54 49.93719 8.67118 4512 ft 279 kts 104°
2026-05-06 05:55 49.93001 8.69861 5257 ft 278 kts 129°
2026-05-06 05:55 49.91642 8.71936 6016 ft 275 kts 148°
2026-05-06 05:55 49.90074 8.73666 6797 ft 278 kts 149°
2026-05-06 05:55 49.88585 8.75641 7536 ft 286 kts 135°
2026-05-06 05:56 49.87442 8.78215 8280 ft 293 kts 122°
2026-05-06 05:56 49.86440 8.81003 9014 ft 297 kts 122°
2026-05-06 05:56 49.85441 8.83784 9701 ft 300 kts 122°
2026-05-06 05:56 49.84398 8.86665 10098 ft 318 kts 122°
2026-05-06 05:57 49.83267 8.89766 10262 ft 340 kts 122°
2026-05-06 05:57 49.82073 8.93035 10606 ft 354 kts 122°
2026-05-06 05:57 49.80850 8.96399 11237 ft 359 kts 122°
2026-05-06 05:57 49.79653 8.99687 11878 ft 363 kts 122°
2026-05-06 05:58 49.78404 9.03113 12560 ft 366 kts 122°
2026-05-06 05:58 49.77147 9.06565 13232 ft 369 kts 122°
2026-05-06 05:58 49.76095 9.10186 13866 ft 376 kts 111°
2026-05-06 05:58 49.75413 9.14123 14473 ft 380 kts 108°
2026-05-06 05:59 49.74489 9.17958 15072 ft 380 kts 119°
2026-05-06 05:59 49.73112 9.21452 15688 ft 379 kts 130°
2026-05-06 05:59 49.71419 9.24539 16271 ft 380 kts 135°
2026-05-06 05:59 49.69656 9.27642 16859 ft 383 kts 135°
2026-05-06 06:00 49.67892 9.30752 17440 ft 386 kts 135°
2026-05-06 06:00 49.66114 9.33889 17988 ft 389 kts 135°
2026-05-06 06:00 49.64323 9.37049 18534 ft 392 kts 135°
2026-05-06 06:00 49.62500 9.40120 19036 ft 392 kts 140°
2026-05-06 06:01 49.60375 9.42760 19530 ft 391 kts 150°
2026-05-06 06:01 49.58040 9.44930 20015 ft 392 kts 153°
2026-05-06 06:01 49.55677 9.47079 20494 ft 395 kts 153°
2026-05-06 06:01 49.53295 9.49252 20981 ft 398 kts 153°
2026-05-06 06:02 49.50921 9.51419 21449 ft 401 kts 153°
2026-05-06 06:02 49.48512 9.53619 21910 ft 403 kts 153°
2026-05-06 06:02 49.46084 9.55832 22351 ft 406 kts 153°
2026-05-06 06:02 49.43638 9.58059 22783 ft 408 kts 153°
2026-05-06 06:03 49.41216 9.60260 23197 ft 411 kts 153°
2026-05-06 06:03 49.38738 9.62508 23610 ft 414 kts 153°
2026-05-06 06:03 49.36249 9.64763 24018 ft 416 kts 153°
2026-05-06 06:03 49.33834 9.67265 24402 ft 422 kts 144°
2026-05-06 06:04 49.31673 9.70358 24865 ft 425 kts 139°
2026-05-06 06:04 49.29577 9.73587 25303 ft 427 kts 139°
2026-05-06 06:04 49.27494 9.76782 25704 ft 428 kts 140°
2026-05-06 06:04 49.25378 9.80007 26099 ft 429 kts 140°
2026-05-06 06:05 49.23254 9.83237 26477 ft 431 kts 140°
2026-05-06 06:05 49.21139 9.86450 26833 ft 433 kts 141°
2026-05-06 06:05 49.18990 9.89709 27201 ft 435 kts 141°
2026-05-06 06:05 49.16832 9.92980 27546 ft 436 kts 141°
2026-05-06 06:06 49.14678 9.96242 27877 ft 438 kts 141°
2026-05-06 06:06 49.12508 9.99526 28201 ft 439 kts 142°
2026-05-06 06:06 49.10327 10.02818 28503 ft 441 kts 142°
2026-05-06 06:06 49.08153 10.06084 28781 ft 443 kts 142°
2026-05-06 06:07 49.05944 10.09402 29083 ft 444 kts 143°
2026-05-06 06:07 49.03719 10.12671 29371 ft 445 kts 144°
2026-05-06 06:07 49.01457 10.15898 29664 ft 446 kts 144°
2026-05-06 06:07 48.99159 10.19113 29961 ft 447 kts 145°
2026-05-06 06:08 48.96883 10.22270 30302 ft 446 kts 145°
2026-05-06 06:08 48.94585 10.25463 30689 ft 446 kts 145°
2026-05-06 06:08 48.92295 10.28669 31048 ft 446 kts 144°
2026-05-06 06:08 48.90014 10.31881 31386 ft 446 kts 144°
2026-05-06 06:09 48.87759 10.35064 31732 ft 446 kts 144°
2026-05-06 06:09 48.85478 10.38285 32054 ft 446 kts 144°
2026-05-06 06:09 48.83200 10.41495 32385 ft 446 kts 143°
2026-05-06 06:09 48.80960 10.44787 32707 ft 448 kts 142°
2026-05-06 06:10 48.78785 10.48195 33021 ft 450 kts 140°
2026-05-06 06:10 48.76682 10.51622 33321 ft 450 kts 139°
2026-05-06 06:10 48.74558 10.55132 33635 ft 450 kts 139°
2026-05-06 06:10 48.72437 10.58623 33928 ft 450 kts 139°
2026-05-06 06:11 48.70297 10.62104 34217 ft 450 kts 140°
2026-05-06 06:11 48.68147 10.65553 34500 ft 449 kts 140°
2026-05-06 06:11 48.65992 10.68981 34794 ft 448 kts 140°
2026-05-06 06:11 48.63858 10.72359 35079 ft 448 kts 140°
2026-05-06 06:12 48.61693 10.75779 35351 ft 448 kts 140°
2026-05-06 06:12 48.59541 10.79173 35640 ft 447 kts 140°
2026-05-06 06:12 48.57385 10.82577 35868 ft 448 kts 140°
2026-05-06 06:12 48.55266 10.85949 36120 ft 447 kts 140°
2026-05-06 06:13 48.53123 10.89381 36357 ft 448 kts 139°
2026-05-06 06:13 48.50984 10.92813 36567 ft 448 kts 139°
2026-05-06 06:13 48.48849 10.96236 36771 ft 448 kts 139°
2026-05-06 06:13 48.46705 10.99641 36844 ft 444 kts 140°
2026-05-06 06:14 48.42471 11.06260 36840 ft 438 kts 140°
2026-05-06 06:14 48.38223 11.12832 36845 ft 437 kts 140°
2026-05-06 06:15 48.34000 11.19363 36838 ft 437 kts 140°
2026-05-06 06:15 48.29760 11.25914 36839 ft 437 kts 140°
2026-05-06 06:16 48.25744 11.32837 36837 ft 445 kts 129°
2026-05-06 06:16 48.22611 11.40876 36840 ft 448 kts 126°
2026-05-06 06:17 48.19496 11.48950 36839 ft 448 kts 126°
2026-05-06 06:17 48.16349 11.57038 36841 ft 449 kts 127°
2026-05-06 06:18 48.13191 11.65145 36843 ft 449 kts 127°
2026-05-06 06:18 48.10065 11.73168 36848 ft 449 kts 127°
2026-05-06 06:19 48.06906 11.81243 36850 ft 449 kts 127°
2026-05-06 06:19 48.03760 11.89266 36852 ft 449 kts 127°
2026-05-06 06:20 48.00602 11.97284 36860 ft 449 kts 127°
2026-05-06 06:20 47.97432 12.05321 36864 ft 449 kts 127°
2026-05-06 06:21 47.94193 12.13269 36865 ft 444 kts 133°
2026-05-06 06:21 47.89990 12.19780 36868 ft 430 kts 147°
2026-05-06 06:22 47.85407 12.25495 36864 ft 431 kts 147°
2026-05-06 06:22 47.80807 12.31240 36863 ft 431 kts 147°
2026-05-06 06:23 47.76219 12.36968 36869 ft 432 kts 147°
2026-05-06 06:23 47.71606 12.42717 36871 ft 432 kts 147°
2026-05-06 06:24 47.67015 12.48426 36870 ft 432 kts 147°
2026-05-06 06:24 47.62393 12.54156 36870 ft 432 kts 146°
2026-05-06 06:25 47.57924 12.60131 36870 ft 436 kts 143°
2026-05-06 06:26 47.51357 12.69534 36871 ft 437 kts 143°
2026-05-06 06:26 47.46957 12.75699 36876 ft 437 kts 143°
2026-05-06 06:27 47.42498 12.81838 36876 ft 437 kts 144°
2026-05-06 06:27 47.38070 12.87912 36880 ft 438 kts 143°
2026-05-06 06:28 47.33606 12.94055 36885 ft 438 kts 143°
2026-05-06 06:28 47.29139 13.00192 36886 ft 438 kts 143°
2026-05-06 06:29 47.24692 13.06275 36887 ft 438 kts 143°
2026-05-06 06:29 47.20214 13.12389 36892 ft 439 kts 143°
2026-05-06 06:30 47.15747 13.18474 36897 ft 439 kts 143°
2026-05-06 06:30 47.11254 13.24581 36895 ft 439 kts 143°
2026-05-06 06:31 47.06791 13.30637 36897 ft 439 kts 144°
2026-05-06 06:31 47.03047 13.35702 36906 ft 439 kts 144°
2026-05-06 06:32 46.97800 13.42790 36908 ft 440 kts 144°
2026-05-06 06:32 46.94034 13.47863 36917 ft 440 kts 144°
2026-05-06 06:33 46.89515 13.53934 36931 ft 441 kts 144°
2026-05-06 06:33 46.84988 13.59996 36928 ft 441 kts 144°
2026-05-06 06:34 46.80480 13.66026 36916 ft 442 kts 144°
2026-05-06 06:34 46.75961 13.72058 36916 ft 442 kts 144°
2026-05-06 06:35 46.71408 13.78112 36929 ft 442 kts 144°
2026-05-06 06:35 46.66836 13.84182 36932 ft 443 kts 144°
2026-05-06 06:36 46.62290 13.90199 36941 ft 444 kts 144°
2026-05-06 06:36 46.57700 13.96268 36943 ft 445 kts 144°
2026-05-06 06:37 46.53130 14.02292 36944 ft 445 kts 144°
2026-05-06 06:37 46.48549 14.08312 36937 ft 445 kts 144°
2026-05-06 06:38 46.43942 14.14351 36943 ft 446 kts 144°
2026-05-06 06:38 46.39333 14.20387 36942 ft 446 kts 144°
2026-05-06 06:39 46.34750 14.26374 36942 ft 446 kts 144°
2026-05-06 06:39 46.30128 14.32390 36941 ft 446 kts 144°
2026-05-06 06:40 46.25540 14.38357 36942 ft 446 kts 144°
2026-05-06 06:40 46.20923 14.44333 36938 ft 446 kts 145°
2026-05-06 06:41 46.16284 14.50328 36937 ft 446 kts 144°
2026-05-06 06:41 46.11654 14.56320 36939 ft 446 kts 144°
2026-05-06 06:42 46.07053 14.62247 36947 ft 446 kts 145°
2026-05-06 06:42 46.02409 14.68199 36953 ft 446 kts 144°
2026-05-06 06:43 45.97789 14.74113 36954 ft 446 kts 144°
2026-05-06 06:43 45.93138 14.80072 36953 ft 447 kts 144°
2026-05-06 06:44 45.88520 14.85967 36955 ft 447 kts 144°
2026-05-06 06:44 45.83860 14.91895 36964 ft 447 kts 144°
2026-05-06 06:45 45.79189 14.97818 36974 ft 448 kts 144°
2026-05-06 06:45 45.74541 15.03709 36976 ft 448 kts 144°
2026-05-06 06:46 45.69854 15.09623 36982 ft 448 kts 144°
2026-05-06 06:46 45.65196 15.15488 36984 ft 448 kts 144°
2026-05-06 06:47 45.60506 15.21402 36990 ft 448 kts 144°
2026-05-06 06:47 45.55842 15.27254 36989 ft 448 kts 144°
2026-05-06 06:48 45.51143 15.33133 36986 ft 448 kts 144°
2026-05-06 06:48 45.46477 15.38963 36987 ft 448 kts 144°
2026-05-06 06:49 45.41778 15.44823 36982 ft 447 kts 144°
2026-05-06 06:49 45.37113 15.50622 36984 ft 447 kts 144°
2026-05-06 06:50 45.32398 15.56457 36982 ft 448 kts 144°
2026-05-06 06:50 45.27714 15.62250 36983 ft 448 kts 144°
2026-05-06 06:51 45.22996 15.68075 36983 ft 448 kts 144°
2026-05-06 06:51 45.18305 15.73858 36987 ft 448 kts 144°
2026-05-06 06:52 45.13589 15.79653 36988 ft 448 kts 144°
2026-05-06 06:52 45.08874 15.85438 36985 ft 448 kts 144°
2026-05-06 06:53 45.04193 15.91177 36986 ft 447 kts 144°
2026-05-06 06:53 44.99468 15.96956 36985 ft 447 kts 144°
2026-05-06 06:54 44.94790 16.02654 36982 ft 447 kts 143°
2026-05-06 06:54 44.90059 16.08393 36976 ft 448 kts 143°
2026-05-06 06:55 44.85338 16.14109 36982 ft 448 kts 143°
2026-05-06 06:55 44.80589 16.19863 36984 ft 449 kts 143°
2026-05-06 06:56 44.75863 16.25578 36989 ft 450 kts 143°
2026-05-06 06:56 44.71102 16.31305 36997 ft 450 kts 143°
2026-05-06 06:57 44.66324 16.37032 37003 ft 450 kts 143°
2026-05-06 06:57 44.61573 16.42733 37006 ft 450 kts 143°
2026-05-06 06:58 44.56816 16.48432 37009 ft 450 kts 143°
2026-05-06 06:58 44.52042 16.54135 37006 ft 450 kts 143°
2026-05-06 06:59 44.47290 16.59793 37008 ft 450 kts 143°
2026-05-06 06:59 44.42515 16.65466 37010 ft 450 kts 143°
2026-05-06 07:00 44.37731 16.71137 37011 ft 450 kts 143°
2026-05-06 07:00 44.32962 16.76780 37012 ft 450 kts 143°
2026-05-06 07:01 44.28194 16.82412 37009 ft 451 kts 143°
2026-05-06 07:01 44.23387 16.88066 37010 ft 451 kts 143°
2026-05-06 07:02 44.18604 16.93674 37015 ft 451 kts 143°
2026-05-06 07:02 44.13788 16.99334 37017 ft 452 kts 143°
2026-05-06 07:03 44.08964 17.04977 37017 ft 451 kts 143°
2026-05-06 07:03 44.04169 17.10577 37012 ft 451 kts 143°
2026-05-06 07:04 43.99338 17.16202 37014 ft 452 kts 143°
2026-05-06 07:04 43.94533 17.21793 37018 ft 453 kts 143°
2026-05-06 07:05 43.89691 17.27400 37022 ft 453 kts 143°
2026-05-06 07:05 43.84870 17.32983 37026 ft 453 kts 143°
2026-05-06 07:06 43.80023 17.38590 37031 ft 454 kts 143°
2026-05-06 07:06 43.75164 17.44196 37042 ft 454 kts 143°
2026-05-06 07:07 43.70326 17.49764 37045 ft 454 kts 143°
2026-05-06 07:07 43.65478 17.55326 37042 ft 454 kts 143°
2026-05-06 07:08 43.60601 17.60909 37049 ft 455 kts 143°
2026-05-06 07:08 43.55718 17.66486 37053 ft 455 kts 143°
2026-05-06 07:09 43.50855 17.72017 37058 ft 455 kts 143°
2026-05-06 07:09 43.45967 17.77577 37064 ft 455 kts 143°
2026-05-06 07:10 43.41076 17.83133 37069 ft 455 kts 143°
2026-05-06 07:10 43.36207 17.88650 37072 ft 455 kts 143°
2026-05-06 07:11 43.31308 17.94185 37077 ft 455 kts 143°
2026-05-06 07:11 43.26434 17.99680 37079 ft 455 kts 143°
2026-05-06 07:12 43.21557 18.05162 37072 ft 455 kts 143°
2026-05-06 07:12 43.16646 18.10678 37065 ft 457 kts 143°
2026-05-06 07:13 43.11705 18.16213 37067 ft 458 kts 143°
2026-05-06 07:13 43.06784 18.21721 37070 ft 458 kts 143°
2026-05-06 07:14 43.01867 18.27206 37071 ft 458 kts 143°
2026-05-06 07:14 42.96904 18.32722 37071 ft 459 kts 143°
2026-05-06 07:15 42.91950 18.38222 37077 ft 459 kts 143°
2026-05-06 07:15 42.87001 18.43716 37082 ft 459 kts 143°
2026-05-06 07:16 42.82044 18.49211 37085 ft 460 kts 143°
2026-05-06 07:16 42.77096 18.54672 37084 ft 459 kts 143°
2026-05-06 07:17 42.72113 18.60153 37082 ft 459 kts 143°
2026-05-06 07:17 42.67152 18.65596 37081 ft 460 kts 143°
2026-05-06 07:18 42.62158 18.71081 37085 ft 461 kts 143°
2026-05-06 07:18 42.57165 18.76553 37099 ft 461 kts 143°
2026-05-06 07:19 42.52190 18.81983 37103 ft 461 kts 143°
2026-05-06 07:19 42.47176 18.87435 37096 ft 461 kts 143°
2026-05-06 07:20 42.42156 18.92892 37104 ft 462 kts 143°
2026-05-06 07:20 42.37138 18.98349 37094 ft 462 kts 143°
2026-05-06 07:21 42.32149 19.03760 37093 ft 463 kts 143°
2026-05-06 07:21 42.27117 19.09205 37091 ft 463 kts 143°
2026-05-06 07:22 42.22098 19.14611 37101 ft 464 kts 143°
2026-05-06 07:22 42.17896 19.19127 37099 ft 464 kts 143°
2026-05-06 07:23 42.12823 19.24572 37094 ft 465 kts 143°
2026-05-06 07:23 42.07778 19.29975 37094 ft 465 kts 143°
2026-05-06 07:24 42.02687 19.35426 37104 ft 466 kts 143°
2026-05-06 07:24 41.97629 19.40824 37093 ft 466 kts 143°
2026-05-06 07:25 41.92558 19.46227 37093 ft 467 kts 143°
2026-05-06 07:25 41.87452 19.51660 37102 ft 467 kts 143°
2026-05-06 07:26 41.82362 19.57058 37103 ft 468 kts 143°
2026-05-06 07:26 41.77233 19.62486 37103 ft 467 kts 143°
2026-05-06 07:27 41.72149 19.67854 37102 ft 468 kts 143°
2026-05-06 07:27 41.67033 19.73251 37105 ft 468 kts 143°
2026-05-06 07:28 41.61942 19.78608 37109 ft 468 kts 143°
2026-05-06 07:28 41.54231 19.86708 37113 ft 468 kts 143°
2026-05-06 07:29 41.49128 19.92050 37108 ft 468 kts 143°
2026-05-06 07:29 41.44019 19.97380 37107 ft 468 kts 143°
2026-05-06 07:30 41.38898 20.02713 37106 ft 468 kts 143°
2026-05-06 07:30 41.33747 20.08068 37096 ft 469 kts 143°
2026-05-06 07:31 41.28616 20.13393 37093 ft 470 kts 143°
2026-05-06 07:31 41.23451 20.18746 37104 ft 470 kts 143°
2026-05-06 07:32 41.18277 20.24090 37109 ft 470 kts 143°
2026-05-06 07:32 41.13133 20.29395 37109 ft 471 kts 143°
2026-05-06 07:33 41.07968 20.34721 37105 ft 471 kts 143°
2026-05-06 07:33 41.02769 20.40064 37113 ft 471 kts 143°
2026-05-06 07:34 40.97574 20.45388 37114 ft 472 kts 143°
2026-05-06 07:34 40.92400 20.50683 37125 ft 472 kts 143°
2026-05-06 07:35 40.87187 20.56007 37129 ft 472 kts 144°
2026-05-06 07:35 40.82009 20.61281 37134 ft 472 kts 143°
2026-05-06 07:36 40.76801 20.66583 37130 ft 472 kts 144°
2026-05-06 07:36 40.71610 20.71836 37130 ft 472 kts 144°
2026-05-06 07:37 40.66388 20.77123 37132 ft 472 kts 144°
2026-05-06 07:37 40.61195 20.82384 37130 ft 473 kts 144°
2026-05-06 07:38 40.55970 20.87667 37126 ft 473 kts 144°
2026-05-06 07:38 40.50765 20.92899 37123 ft 473 kts 144°
2026-05-06 07:39 40.45704 20.98456 37115 ft 473 kts 138°
2026-05-06 07:39 40.40891 21.04294 37116 ft 474 kts 138°
2026-05-06 07:40 40.36028 21.10173 37111 ft 475 kts 138°
2026-05-06 07:40 40.31175 21.16010 37114 ft 475 kts 138°
2026-05-06 07:41 40.26285 21.21888 37109 ft 476 kts 138°
2026-05-06 07:41 40.21420 21.27728 37111 ft 477 kts 138°
2026-05-06 07:42 40.16510 21.33612 37105 ft 478 kts 138°
2026-05-06 07:42 40.11597 21.39483 37105 ft 478 kts 138°
2026-05-06 07:43 40.06705 21.45316 37111 ft 479 kts 138°
2026-05-06 07:43 40.01778 21.51178 37106 ft 479 kts 138°
2026-05-06 07:44 39.96870 21.57011 37110 ft 480 kts 138°
2026-05-06 07:44 39.91907 21.62895 37112 ft 480 kts 138°
2026-05-06 07:45 39.86972 21.68730 37110 ft 481 kts 139°
2026-05-06 07:45 39.82016 21.74585 37108 ft 480 kts 138°
2026-05-06 07:46 39.77113 21.80365 37108 ft 480 kts 139°
2026-05-06 07:46 39.72145 21.86199 37100 ft 481 kts 139°
2026-05-06 07:47 39.67170 21.92037 37104 ft 481 kts 139°
2026-05-06 07:47 39.62222 21.97833 37105 ft 481 kts 139°
2026-05-06 07:48 39.57234 22.03664 37101 ft 481 kts 139°
2026-05-06 07:48 39.52265 22.09454 37096 ft 482 kts 139°
2026-05-06 07:49 39.47268 22.15266 37102 ft 482 kts 139°
2026-05-06 07:49 39.42302 22.21041 37084 ft 481 kts 139°
2026-05-06 07:50 39.37295 22.26848 37104 ft 482 kts 139°
2026-05-06 07:50 39.32294 22.32627 37096 ft 482 kts 139°
2026-05-06 07:51 39.27318 22.38370 37097 ft 482 kts 139°
2026-05-06 07:51 39.22306 22.44147 37092 ft 482 kts 139°
2026-05-06 07:52 39.17330 22.49869 37083 ft 481 kts 139°
2026-05-06 07:52 39.12313 22.55632 37099 ft 481 kts 139°
2026-05-06 07:53 39.07342 22.61335 37083 ft 481 kts 139°
2026-05-06 07:53 39.02332 22.67070 37080 ft 481 kts 139°
2026-05-06 07:54 38.97341 22.72751 37084 ft 481 kts 139°
2026-05-06 07:54 38.92316 22.78465 37084 ft 481 kts 139°
2026-05-06 07:55 38.87315 22.84148 37083 ft 481 kts 139°
2026-05-06 07:55 38.82282 22.89852 37075 ft 480 kts 139°
2026-05-06 07:56 38.77295 22.95504 37070 ft 481 kts 139°
2026-05-06 07:56 38.72280 23.01182 37070 ft 481 kts 139°
2026-05-06 07:57 38.67257 23.06846 37061 ft 481 kts 139°
2026-05-06 07:57 38.62248 23.12488 37060 ft 482 kts 139°
2026-05-06 07:58 38.57194 23.18166 37062 ft 482 kts 139°
2026-05-06 07:58 38.52165 23.23797 37066 ft 483 kts 139°
2026-05-06 07:59 38.47093 23.29473 37068 ft 483 kts 139°
2026-05-06 07:59 38.42065 23.35085 37069 ft 483 kts 139°
2026-05-06 08:00 38.37016 23.40718 37067 ft 483 kts 139°
2026-05-06 08:00 38.31981 23.46326 37065 ft 483 kts 139°
2026-05-06 08:01 38.26895 23.51965 37065 ft 484 kts 139°
2026-05-06 08:01 38.21826 23.57564 37069 ft 485 kts 139°
2026-05-06 08:02 38.16654 23.63037 37068 ft 483 kts 148°
2026-05-06 08:02 38.10993 23.67668 37063 ft 483 kts 149°
2026-05-06 08:03 38.05316 23.72288 37067 ft 484 kts 148°
2026-05-06 08:03 37.99665 23.76904 37072 ft 485 kts 148°
2026-05-06 08:04 37.94005 23.81524 37081 ft 485 kts 149°
2026-05-06 08:04 37.88325 23.86142 37100 ft 486 kts 149°
2026-05-06 08:05 37.82612 23.90765 37110 ft 486 kts 148°
2026-05-06 08:05 37.76930 23.95359 37102 ft 486 kts 148°
2026-05-06 08:06 37.71223 23.99975 37106 ft 486 kts 149°
2026-05-06 08:06 37.65549 24.04548 37110 ft 486 kts 149°
2026-05-06 08:07 37.59728 24.08881 37108 ft 484 kts 155°
2026-05-06 08:07 37.53721 24.12663 37108 ft 484 kts 156°
2026-05-06 08:08 37.47658 24.16395 37110 ft 484 kts 156°
2026-05-06 08:08 37.41641 24.20119 37120 ft 484 kts 156°
2026-05-06 08:09 37.38611 24.22003 36997 ft 485 kts 156°
2026-05-06 08:09 37.35579 24.23891 36483 ft 485 kts 155°
2026-05-06 08:09 37.32560 24.25774 35985 ft 484 kts 155°
2026-05-06 08:09 37.29562 24.27645 35485 ft 486 kts 155°
2026-05-06 08:10 37.26520 24.29538 34994 ft 489 kts 155°
2026-05-06 08:10 37.23462 24.31434 34484 ft 492 kts 155°
2026-05-06 08:10 37.20373 24.33345 33930 ft 495 kts 155°
2026-05-06 08:10 37.17308 24.35236 33379 ft 496 kts 155°
2026-05-06 08:11 37.14202 24.37152 32834 ft 497 kts 155°
2026-05-06 08:11 37.11086 24.39072 32281 ft 497 kts 155°
2026-05-06 08:11 37.07991 24.40980 31729 ft 494 kts 155°
2026-05-06 08:11 37.04956 24.42852 31183 ft 490 kts 155°
2026-05-06 08:12 37.01900 24.44740 30632 ft 487 kts 155°
2026-05-06 08:12 36.98852 24.46619 30078 ft 483 kts 155°
2026-05-06 08:12 36.96863 24.47841 29714 ft 481 kts 155°
2026-05-06 08:12 36.92882 24.50280 28987 ft 476 kts 156°
2026-05-06 08:13 36.89911 24.52097 28435 ft 473 kts 156°
2026-05-06 08:13 36.87953 24.53294 28063 ft 470 kts 156°
2026-05-06 08:13 36.85015 24.55088 27513 ft 467 kts 156°
2026-05-06 08:13 36.82106 24.56867 26969 ft 464 kts 156°
2026-05-06 08:14 36.79241 24.58620 26406 ft 460 kts 156°
2026-05-06 08:14 36.76368 24.60381 25865 ft 457 kts 156°
2026-05-06 08:14 36.73517 24.62126 25312 ft 453 kts 156°
2026-05-06 08:14 36.70690 24.63849 24764 ft 449 kts 156°
2026-05-06 08:15 36.67892 24.65552 24207 ft 446 kts 156°
2026-05-06 08:15 36.65141 24.67224 23665 ft 442 kts 156°
2026-05-06 08:15 36.62390 24.68895 23117 ft 438 kts 156°
2026-05-06 08:15 36.59654 24.70557 22564 ft 435 kts 156°
2026-05-06 08:16 36.56930 24.72214 22012 ft 432 kts 156°
2026-05-06 08:16 36.54239 24.73849 21461 ft 428 kts 156°
2026-05-06 08:16 36.51603 24.75447 20912 ft 424 kts 156°
2026-05-06 08:16 36.48951 24.77053 20357 ft 422 kts 156°
2026-05-06 08:17 36.46318 24.78645 19815 ft 419 kts 155°
2026-05-06 08:17 36.43704 24.80225 19284 ft 415 kts 155°
2026-05-06 08:17 36.41118 24.81790 18740 ft 413 kts 155°
2026-05-06 08:17 36.38537 24.83348 18187 ft 410 kts 155°
2026-05-06 08:18 36.36008 24.84872 17647 ft 407 kts 155°
2026-05-06 08:18 36.33452 24.86409 17098 ft 405 kts 155°
2026-05-06 08:18 36.30919 24.87930 16573 ft 400 kts 155°
2026-05-06 08:18 36.28508 24.89384 16066 ft 380 kts 155°
2026-05-06 08:19 36.26148 24.90810 15556 ft 371 kts 155°
2026-05-06 08:19 36.23838 24.92205 15063 ft 367 kts 154°
2026-05-06 08:19 36.21560 24.93576 14574 ft 367 kts 154°
2026-05-06 08:19 36.19264 24.94954 14060 ft 364 kts 154°
2026-05-06 08:20 36.17006 24.96307 13567 ft 358 kts 154°
2026-05-06 08:20 36.14749 24.97660 13066 ft 358 kts 154°
2026-05-06 08:20 36.12508 24.99005 12565 ft 357 kts 154°
2026-05-06 08:20 36.10269 25.00344 12063 ft 357 kts 154°
2026-05-06 08:21 36.08034 25.01679 11562 ft 356 kts 154°
2026-05-06 08:21 36.05801 25.03013 11079 ft 355 kts 154°
2026-05-06 08:21 36.03630 25.04310 10587 ft 345 kts 154°
2026-05-06 08:21 36.01495 25.05587 10085 ft 337 kts 153°
2026-05-06 08:22 35.99395 25.06843 9582 ft 332 kts 153°
2026-05-06 08:22 35.97338 25.08069 9094 ft 323 kts 153°
2026-05-06 08:22 35.95337 25.09261 8600 ft 314 kts 153°
2026-05-06 08:22 35.93409 25.10407 8103 ft 307 kts 153°
2026-05-06 08:23 35.91489 25.11552 7654 ft 304 kts 153°
2026-05-06 08:23 35.89602 25.12674 7407 ft 298 kts 154°
2026-05-06 08:23 35.87739 25.13782 7130 ft 295 kts 154°
2026-05-06 08:23 35.85918 25.14867 6866 ft 293 kts 154°
2026-05-06 08:24 35.84087 25.15959 6584 ft 292 kts 154°
2026-05-06 08:24 35.82258 25.17047 6266 ft 290 kts 154°
2026-05-06 08:24 35.80445 25.18127 5940 ft 289 kts 154°
2026-05-06 08:24 35.78639 25.19202 5724 ft 288 kts 154°
2026-05-06 08:25 35.76831 25.20273 5550 ft 288 kts 154°
2026-05-06 08:25 35.75020 25.21349 5389 ft 286 kts 154°
2026-05-06 08:25 35.73247 25.22402 5223 ft 285 kts 154°
2026-05-06 08:25 35.71464 25.23459 5044 ft 285 kts 154°
2026-05-06 08:26 35.69675 25.24519 4872 ft 284 kts 154°
2026-05-06 08:26 35.67895 25.25572 4701 ft 283 kts 154°
2026-05-06 08:26 35.66121 25.26620 4525 ft 282 kts 154°
2026-05-06 08:26 35.64375 25.27651 4326 ft 281 kts 154°
2026-05-06 08:27 35.62609 25.28692 4137 ft 280 kts 154°
2026-05-06 08:27 35.60854 25.29731 3939 ft 279 kts 154°
2026-05-06 08:27 35.59105 25.30764 3745 ft 278 kts 154°
2026-05-06 08:27 35.57384 25.31778 3544 ft 277 kts 154°
2026-05-06 08:28 35.55646 25.32799 3353 ft 276 kts 154°
2026-05-06 08:28 35.53907 25.33821 3161 ft 275 kts 154°
2026-05-06 08:28 35.52182 25.34840 3037 ft 274 kts 154°
2026-05-06 08:28 35.50462 25.35855 3005 ft 273 kts 154°
2026-05-06 08:29 35.48758 25.36861 3009 ft 274 kts 154°
2026-05-06 08:29 35.47027 25.37849 3015 ft 274 kts 159°
2026-05-06 08:29 35.45187 25.38333 3016 ft 273 kts 178°
2026-05-06 08:29 35.43310 25.38098 3010 ft 272 kts 197°
2026-05-06 08:30 35.41626 25.37288 3006 ft 257 kts 206°
2026-05-06 08:30 35.40041 25.36426 2988 ft 240 kts 206°
2026-05-06 08:30 35.38555 25.35627 2879 ft 226 kts 206°
2026-05-06 08:30 35.37175 25.34888 2781 ft 205 kts 206°
2026-05-06 08:31 35.35949 25.34230 2693 ft 180 kts 206°
2026-05-06 08:31 35.34897 25.33652 2603 ft 157 kts 211°
2026-05-06 08:31 35.34095 25.32848 2528 ft 145 kts 232°
2026-05-06 08:31 35.33585 25.31818 2434 ft 140 kts 249°
2026-05-06 08:32 35.33381 25.30661 2207 ft 139 kts 266°
2026-05-06 08:32 35.33436 25.29476 1983 ft 140 kts 272°
2026-05-06 08:32 35.33501 25.28288 1767 ft 142 kts 270°
2026-05-06 08:32 35.33496 25.27067 1577 ft 144 kts 267°
2026-05-06 08:33 35.33491 25.25838 1343 ft 144 kts 271°
2026-05-06 08:33 35.33534 25.24622 1136 ft 142 kts 275°
2026-05-06 08:33 35.33613 25.23460 877 ft 143 kts 277°
2026-05-06 08:33 35.33698 25.22229 688 ft 145 kts 273°
2026-05-06 08:34 35.33766 25.20996 455 ft 144 kts 275°
2026-05-06 08:34 35.33935 25.18602 95 ft 136 kts 275°
2026-05-06 08:34 35.33994 25.17604 92 ft 90 kts 277°
2026-05-06 08:35 35.34022 25.17190 90 ft 30 kts 258°
2026-05-06 08:35 35.33982 25.17076 92 ft 0 kts 243°
2026-05-06 08:35 35.33980 25.17072 90 ft 3 kts 243°
2026-05-06 08:36 35.33949 25.17073 94 ft 8 kts 124°
2026-05-06 08:36 35.33936 25.17144 90 ft 9 kts 96°
2026-05-06 08:36 35.33926 25.17286 94 ft 26 kts 94°
2026-05-06 08:36 35.33911 25.17524 92 ft 28 kts 94°
2026-05-06 08:37 35.33868 25.17625 94 ft 12 kts 178°
2026-05-06 08:37 35.33790 25.17608 91 ft 9 kts 222°
2026-05-06 08:37 35.33794 25.17572 93 ft 4 kts 283°
2026-05-06 08:37 35.33804 25.17550 92 ft 3 kts 313°
2026-05-06 08:38 35.33812 25.17540 91 ft 0 kts 316°